Regional Weather Roundup
Issued by NWS Cleveland, OH

Home | Current Version | Previous Version | Text Only | Print | Product List | Glossary On
Versions: 1 2 3 4 5 6 7 8 9 10 11 12 13 14 15 16 17 18 19 20 21 22 23 24 25 26 27 28 29 30 31 32 33 34 35 36 37 38 39 40 41 42 43 44 45 46 47 48 49 50
000
ASUS41 KCLE 190612
RWRCLE
OHIO REGIONAL WEATHER ROUNDUP
NATIONAL WEATHER SERVICE WILMINGTON, OH
100 AM EST MON FEB 19 2018

NOTE: "FAIR" INDICATES FEW OR NO CLOUDS BELOW 12,000 FEET WITH NO
SIGNIFICANT WEATHER AND/OR OBSTRUCTIONS TO VISIBILITY.

OHZ001>008-015>018-024>027-034-035-043-044-190700-
   NORTHWEST OHIO

CITY           SKY/WX    TMP DP  RH WIND       PRES   REMARKS
DEFIANCE       FAIR      33  28  81 SE3       30.05F
FINDLAY        FAIR      36  28  73 S15       30.06F
TOLEDO EXPRESS FAIR      34  30  85 SE6       30.06F WCI  29
TOLEDO EXEC    FAIR      32  27  81 SE9       30.07F WCI  24
LIMA           FAIR      37  31  78 S15       30.05F
$$

OHZ009>014-019>023-028>033-038-089-190700-
   NORTHEAST OHIO

CITY           SKY/WX    TMP DP  RH WIND       PRES   REMARKS
CLE-HOPKINS    MOCLDY    35  27  72 S10       30.15F WCI  27
CLE-LAKEFRONT  FAIR      36  26  67 SE13      30.12F
CUY CO. ARPT   NOT AVBL
LORAIN-ELYRIA  FAIR      34  24  67 S12       30.11F WCI  25
ASHTABULA      FAIR      35  26  69 S14G22    30.15F WCI  26
AKRON-CANTON   MOCLDY    35  26  69 SE15      30.12F WCI  25
WOOSTER        FAIR      33  28  81 S9        30.12F WCI  25
MANSFIELD      FAIR      35  28  75 SE14      30.09F WCI  26
YOUNGSTOWN     CLOUDY    35  26  69 SE10      30.14F WCI  27
$$

OHZ042-051>053-060>062-070>072-077>081-190700-
  SOUTHWEST OHIO

CITY           SKY/WX    TMP DP  RH WIND       PRES   REMARKS
CINC-COVINGTON MOCLDY    41  34  76 S10       30.08F
CINC-LUNKEN    FAIR      39  34  82 SW7       30.10F
HAMILTON       FAIR      40  33  76 CALM      30.10F
DAYTON         CLOUDY    38  32  79 SE13      30.08F
WRIGHT-PAT AFB FAIR      37  31  78 SE3       30.09F
DAYTON GENERAL FAIR      40  31  70 SE7       30.07F
WILMINGTON     FAIR      39  33  79 SE9       30.08F
$$

OHZ036-037-039>041-045>050-054>059-063>069-073>076-082>088-190700-
  CENTRAL AND SOUTHEAST OHIO

CITY           SKY/WX    TMP DP  RH WIND       PRES   REMARKS
COLUMBUS       MOCLDY    37  29  72 SE7       30.12F
OSU AIRPORT    FAIR      36  30  79 SE8       30.12S
BOLTON FIELD   FAIR      34  30  83 SE7       30.11F WCI  28
RICKENBACK AFB FAIR      35  30  81 SE6       30.12F
NEWARK         FAIR      36  28  73 S6        30.13F
MARION         FAIR      35  28  75 S13       30.09F WCI  26
LANCASTER      FAIR      36  29  75 SE8       30.13F
ZANESVILLE     FAIR      34  27  75 SE3       30.15F
NEW PHILLY     FAIR      34  27  75 SE5       30.16F WCI  30
$$




USA.gov is the U.S. government's official web portal to all federal, state and local government web resources and services.